Date,TemperatureHighF,TemperatureAvgF,TemperatureLowF,DewpointHighF,DewpointAvgF,DewpointLowF,HumidityHigh,HumidityAvg,HumidityLow,PressureMaxIn,PressureMinIn,WindSpeedMaxMPH,WindSpeedAvgMPH,GustSpeedMaxMPH,PrecipitationSumIn
2013-9-1,76.3,70.3,66.0,37.5,-3.4,-20.3,33,9,2,28.56,28.41,13,0,13,0.00
2013-9-2,70.2,65.7,58.3,39.2,13.5,-12.7,36,19,4,28.58,28.41,15,4,15,0.00
2013-9-3,71.1,62.7,57.6,39.7,33.9,30.1,35,34,32,28.70,28.58,16,3,16,0.00
2013-9-4,76.6,66.7,56.7,43.7,36.7,29.8,36,33,28,28.76,28.67,15,4,15,0.00
2013-9-5,68.5,61.1,52.3,38.3,32.8,26.1,36,34,33,28.94,28.76,11,2,11,0.00
2013-9-6,73.0,61.1,49.8,41.4,32.8,24.6,37,35,32,28.94,28.73,8,0,8,0.00
2013-9-7,75.7,66.7,58.1,43.1,28.7,-20.3,35,28,4,28.73,28.58,12,2,12,0.00
2013-9-8,72.0,66.0,55.0,40.5,17.9,-12.2,36,22,4,28.76,28.61,13,2,13,0.00
2013-9-9,73.2,64.4,54.7,37.9,14.1,-14.7,36,22,3,28.76,28.56,8,1,8,0.00
2013-9-10,88.0,77.5,69.3,51.4,21.0,-20.3,32,19,2,28.70,28.56,17,3,17,0.00
2013-9-11,87.3,75.6,68.7,51.1,43.0,37.7,33,31,29,28.70,28.61,12,2,12,0.00
2013-9-12,75.2,66.1,54.9,42.3,29.0,-11.3,36,28,4,28.64,28.53,24,3,24,0.00
2013-9-13,57.2,52.6,44.1,30.1,26.4,20.0,38,36,35,28.79,28.64,13,3,13,0.00
2013-9-14,66.2,53.4,42.1,36.2,27.1,18.9,39,36,33,28.85,28.76,9,1,9,0.00
2013-9-15,60.3,55.0,49.6,32.5,28.5,24.4,37,36,35,28.79,28.73,6,0,6,0.00
2013-9-16,60.3,54.5,44.2,32.3,23.3,-11.0,38,32,6,29.03,28.79,10,2,10,0.00
2013-9-17,66.6,52.1,39.6,36.5,26.1,16.6,39,36,33,29.06,28.88,10,1,10,0.00
2013-9-18,75.6,60.3,47.3,42.6,32.1,22.9,38,35,31,28.88,28.70,10,1,10,0.00
2013-9-19,77.7,68.0,58.8,44.7,37.8,31.4,36,33,28,28.70,28.56,9,1,9,0.00
2013-9-20,76.3,69.8,66.4,42.3,3.1,-20.3,33,12,2,28.58,28.41,14,2,14,0.00
2013-9-21,66.4,60.4,52.7,35.4,10.2,-12.7,36,20,4,28.56,28.35,13,4,13,0.00
2013-9-22,56.7,51.2,44.6,29.3,25.5,20.5,38,37,35,28.76,28.56,11,2,11,0.00
2013-9-23,58.8,49.1,39.6,31.2,23.9,16.6,39,37,35,28.85,28.76,10,1,10,0.00
2013-9-24,68.4,53.4,41.0,38.1,27.1,17.9,39,36,33,28.82,28.67,9,1,9,0.00
2013-9-25,70.9,56.0,44.4,39.5,29.1,20.4,38,36,32,28.67,28.64,11,1,11,0.00
2013-9-26,73.9,57.6,45.9,41.6,30.2,21.7,38,35,31,28.82,28.67,8,1,8,0.00
2013-9-27,76.3,60.6,48.4,43.4,32.2,23.3,37,34,31,28.91,28.82,10,1,10,0.00
2013-9-28,77.7,64.5,51.4,44.5,35.2,25.7,37,34,28,28.88,28.67,11,2,11,0.00
2013-9-29,62.2,60.1,0.0,34.2,31.1,20.0,35,33,22,28.67,28.61,10,1,10,0.00
2013-9-30,66.6,59.8,53.2,36.8,15.2,-12.7,37,22,4,28.70,28.58,10,1,10,0.00